Time,TemperatureF,DewpointF,PressureIn,WindDirection,WindDirectionDegrees,WindSpeedMPH,WindSpeedGustMPH,Humidity,HourlyPrecipIn,Conditions,Clouds,dailyrainin,SoftwareType,DateUTC
2013-01-23 00:00:00,24.4,3.0,29.90,South,180,0.0,0.0,39,0.00,,,0.00,WeatherDisplay:10.37,2013-01-23 05:00:00,
2013-01-23 00:01:00,24.4,3.0,29.90,South,180,0.0,0.0,39,0.00,,,0.00,WeatherDisplay:10.37,2013-01-23 05:01:00,
2013-01-23 00:02:00,24.4,3.0,29.90,South,180,0.0,0.0,39,0.00,,,0.00,WeatherDisplay:10.37,2013-01-23 05:02:00,
2013-01-23 00:03:00,24.4,3.0,29.90,South,180,0.0,0.0,39,0.00,,,0.00,WeatherDisplay:10.37,2013-01-23 05:03:00,
2013-01-23 00:08:00,24.4,3.0,29.90,South,180,0.0,0.0,39,0.00,,,0.00,WeatherDisplay:10.37,2013-01-23 05:08:00,
2013-01-23 00:13:00,24.4,3.5,29.89,South,180,0.0,0.0,40,0.00,,,0.00,WeatherDisplay:10.37,2013-01-23 05:13:00,
2013-01-23 00:18:00,24.4,3.5,29.90,South,180,0.0,0.0,40,0.00,,,0.00,WeatherDisplay:10.37,2013-01-23 05:18:00,
2013-01-23 00:23:00,24.4,3.5,29.89,South,180,0.0,0.0,40,0.00,,,0.00,WeatherDisplay:10.37,2013-01-23 05:23:00,
2013-01-23 00:28:00,24.4,3.5,29.90,South,180,0.0,0.0,40,0.00,,,0.00,WeatherDisplay:10.37,2013-01-23 05:28:00,
2013-01-23 00:33:00,24.6,3.7,29.90,South,180,0.0,0.0,40,0.00,,,0.00,WeatherDisplay:10.37,2013-01-23 05:33:00,
2013-01-23 00:38:00,24.4,3.5,29.90,South,180,0.0,0.0,40,0.00,,,0.00,WeatherDisplay:10.37,2013-01-23 05:38:00,
2013-01-23 00:43:00,24.4,3.5,29.90,South,180,0.0,0.0,40,0.00,,,0.00,WeatherDisplay:10.37,2013-01-23 05:43:00,
2013-01-23 00:48:00,24.4,3.5,29.90,South,180,0.0,0.0,40,0.00,,,0.00,WeatherDisplay:10.37,2013-01-23 05:48:00,
2013-01-23 00:53:00,24.4,3.5,29.90,South,180,0.0,0.0,40,0.00,,,0.00,WeatherDisplay:10.37,2013-01-23 05:53:00,
2013-01-23 00:58:00,24.4,3.5,29.91,South,180,0.0,0.0,40,0.00,,,0.00,WeatherDisplay:10.37,2013-01-23 05:58:00,
2013-01-23 01:03:00,24.1,3.2,29.91,South,180,0.0,0.0,40,0.00,,,0.00,WeatherDisplay:10.37,2013-01-23 06:03:00,
2013-01-23 01:08:00,23.9,3.0,29.91,South,180,0.0,0.0,40,0.00,,,0.00,WeatherDisplay:10.37,2013-01-23 06:08:00,
2013-01-23 01:13:00,23.9,3.0,29.91,South,180,0.0,0.0,40,0.00,,,0.00,WeatherDisplay:10.37,2013-01-23 06:13:00,
2013-01-23 01:18:00,23.9,3.0,29.91,South,180,0.0,0.0,40,0.00,,,0.00,WeatherDisplay:10.37,2013-01-23 06:18:00,
2013-01-23 01:23:00,23.9,3.6,29.91,South,180,0.0,0.0,41,0.00,,,0.00,WeatherDisplay:10.37,2013-01-23 06:23:00,
2013-01-23 01:28:00,24.1,3.7,29.91,South,180,0.0,0.0,41,0.00,,,0.00,WeatherDisplay:10.37,2013-01-23 06:28:00,
2013-01-23 01:33:00,24.4,4.1,29.91,South,180,0.0,0.0,41,0.00,,,0.00,WeatherDisplay:10.37,2013-01-23 06:33:00,
2013-01-23 01:38:00,24.4,4.1,29.91,South,180,0.0,0.0,41,0.00,,,0.00,WeatherDisplay:10.37,2013-01-23 06:38:00,
2013-01-23 01:43:00,24.1,3.7,29.91,South,180,0.0,0.0,41,0.00,,,0.00,WeatherDisplay:10.37,2013-01-23 06:43:00,
2013-01-23 01:48:00,24.1,3.7,29.91,South,180,0.0,0.0,41,0.00,,,0.00,WeatherDisplay:10.37,2013-01-23 06:48:00,
2013-01-23 01:53:00,24.1,3.7,29.91,South,180,0.0,0.0,41,0.00,,,0.00,WeatherDisplay:10.37,2013-01-23 06:53:00,
2013-01-23 01:58:00,24.1,3.7,29.92,South,180,0.0,0.0,41,0.00,,,0.00,WeatherDisplay:10.37,2013-01-23 06:58:00,
2013-01-23 02:03:00,23.9,3.6,29.92,South,180,0.0,0.0,41,0.00,,,0.00,WeatherDisplay:10.37,2013-01-23 07:03:00,
2013-01-23 02:08:00,23.7,3.4,29.92,South,180,0.0,0.0,41,0.00,,,0.00,WeatherDisplay:10.37,2013-01-23 07:08:00,
2013-01-23 02:13:00,23.4,3.6,29.91,South,180,0.0,0.0,42,0.00,,,0.00,WeatherDisplay:10.37,2013-01-23 07:13:00,
2013-01-23 02:18:00,23.0,3.3,29.91,South,180,0.0,0.0,42,0.00,,,0.00,WeatherDisplay:10.37,2013-01-23 07:18:00,
2013-01-23 02:23:00,22.8,3.1,29.91,South,180,0.0,0.0,42,0.00,,,0.00,WeatherDisplay:10.37,2013-01-23 07:23:00,
2013-01-23 02:28:00,22.8,3.1,29.92,South,180,0.0,0.0,42,0.00,,,0.00,WeatherDisplay:10.37,2013-01-23 07:28:00,
2013-01-23 02:33:00,22.8,3.1,29.92,South,180,0.0,0.0,42,0.00,,,0.00,WeatherDisplay:10.37,2013-01-23 07:33:00,
2013-01-23 02:38:00,22.8,3.1,29.92,South,180,0.0,0.0,42,0.00,,,0.00,WeatherDisplay:10.37,2013-01-23 07:38:00,
2013-01-23 02:43:00,22.8,3.1,29.92,South,180,0.0,0.0,42,0.00,,,0.00,WeatherDisplay:10.37,2013-01-23 07:43:00,
2013-01-23 02:48:00,22.8,3.1,29.92,South,180,0.0,0.0,42,0.00,,,0.00,WeatherDisplay:10.37,2013-01-23 07:48:00,
2013-01-23 02:53:00,22.8,3.1,29.93,South,180,0.0,0.0,42,0.00,,,0.00,WeatherDisplay:10.37,2013-01-23 07:53:00,
2013-01-23 02:58:00,22.8,3.1,29.93,South,180,0.0,0.0,42,0.00,,,0.00,WeatherDisplay:10.37,2013-01-23 07:58:00,
2013-01-23 03:03:00,22.8,3.6,29.92,SSW,202,0.0,0.0,43,0.00,,,0.00,WeatherDisplay:10.37,2013-01-23 08:03:00,
2013-01-23 03:08:00,22.8,3.6,29.93,SSW,202,0.0,0.0,43,0.00,,,0.00,WeatherDisplay:10.37,2013-01-23 08:08:00,
2013-01-23 03:13:00,23.2,4.0,29.93,SSW,202,0.0,0.0,43,0.00,,,0.00,WeatherDisplay:10.37,2013-01-23 08:13:00,
2013-01-23 03:18:00,23.2,4.0,29.93,South,180,0.0,0.0,43,0.00,,,0.00,WeatherDisplay:10.37,2013-01-23 08:18:00,
2013-01-23 03:23:00,23.2,4.0,29.92,South,180,0.0,0.0,43,0.00,,,0.00,WeatherDisplay:10.37,2013-01-23 08:23:00,
2013-01-23 03:28:00,23.4,4.1,29.92,South,180,0.0,0.0,43,0.00,,,0.00,WeatherDisplay:10.37,2013-01-23 08:28:00,
2013-01-23 03:33:00,23.5,4.3,29.92,South,180,0.0,0.0,43,0.00,,,0.00,WeatherDisplay:10.37,2013-01-23 08:33:00,
2013-01-23 03:38:00,23.5,4.3,29.92,South,180,0.0,0.0,43,0.00,,,0.00,WeatherDisplay:10.37,2013-01-23 08:38:00,
2013-01-23 03:43:00,23.4,4.6,29.92,South,180,0.0,0.0,44,0.00,,,0.00,WeatherDisplay:10.37,2013-01-23 08:43:00,
2013-01-23 03:48:00,23.4,4.1,29.92,South,180,0.0,0.0,43,0.00,,,0.00,WeatherDisplay:10.37,2013-01-23 08:48:00,
2013-01-23 03:53:00,23.2,4.5,29.92,South,180,0.0,0.0,44,0.00,,,0.00,WeatherDisplay:10.37,2013-01-23 08:53:00,
2013-01-23 03:58:00,23.2,4.5,29.92,South,180,0.0,0.0,44,0.00,,,0.00,WeatherDisplay:10.37,2013-01-23 08:58:00,
2013-01-23 04:03:00,23.2,4.5,29.92,South,180,0.0,0.0,44,0.00,,,0.00,WeatherDisplay:10.37,2013-01-23 09:03:00,
2013-01-23 04:08:00,23.0,4.3,29.92,South,180,0.0,0.0,44,0.00,,,0.00,WeatherDisplay:10.37,2013-01-23 09:08:00,
2013-01-23 04:13:00,22.8,4.1,29.93,South,180,0.0,0.0,44,0.00,,,0.00,WeatherDisplay:10.37,2013-01-23 09:13:00,
2013-01-23 04:18:00,22.8,4.1,29.92,South,180,0.0,0.0,44,0.00,,,0.00,WeatherDisplay:10.37,2013-01-23 09:18:00,
2013-01-23 04:23:00,22.8,4.1,29.92,South,180,0.0,0.0,44,0.00,,,0.00,WeatherDisplay:10.37,2013-01-23 09:23:00,
2013-01-23 04:28:00,23.0,4.3,29.92,South,180,0.0,0.0,44,0.00,,,0.00,WeatherDisplay:10.37,2013-01-23 09:28:00,
2013-01-23 04:33:00,23.2,4.5,29.92,South,180,0.0,0.0,44,0.00,,,0.00,WeatherDisplay:10.37,2013-01-23 09:33:00,
2013-01-23 04:38:00,23.2,4.5,29.92,South,180,0.0,0.0,44,0.00,,,0.00,WeatherDisplay:10.37,2013-01-23 09:38:00,
2013-01-23 04:43:00,23.2,4.5,29.92,South,180,0.0,0.0,44,0.00,,,0.00,WeatherDisplay:10.37,2013-01-23 09:43:00,
2013-01-23 04:48:00,23.4,4.6,29.92,South,180,0.0,0.0,44,0.00,,,0.00,WeatherDisplay:10.37,2013-01-23 09:48:00,
2013-01-23 04:53:00,23.4,4.6,29.92,South,180,0.0,0.0,44,0.00,,,0.00,WeatherDisplay:10.37,2013-01-23 09:53:00,
2013-01-23 04:58:00,23.4,4.6,29.93,South,180,0.0,0.0,44,0.00,,,0.00,WeatherDisplay:10.37,2013-01-23 09:58:00,
2013-01-23 05:03:00,23.4,4.6,29.93,South,180,0.0,0.0,44,0.00,,,0.00,WeatherDisplay:10.37,2013-01-23 10:03:00,
2013-01-23 05:08:00,23.4,4.6,29.93,South,180,0.0,0.0,44,0.00,,,0.00,WeatherDisplay:10.37,2013-01-23 10:08:00,
2013-01-23 05:13:00,23.5,4.8,29.93,South,180,0.0,0.0,44,0.00,,,0.00,WeatherDisplay:10.37,2013-01-23 10:13:00,
2013-01-23 05:18:00,23.4,4.6,29.92,South,180,0.0,0.0,44,0.00,,,0.00,WeatherDisplay:10.37,2013-01-23 10:18:00,
2013-01-23 05:23:00,23.4,4.6,29.93,South,180,0.0,0.0,44,0.00,,,0.00,WeatherDisplay:10.37,2013-01-23 10:23:00,
2013-01-23 05:28:00,23.2,4.9,29.93,SSE,158,0.0,0.0,45,0.00,,,0.00,WeatherDisplay:10.37,2013-01-23 10:28:00,
2013-01-23 05:33:00,23.2,4.5,29.92,SSE,158,0.0,0.0,44,0.00,,,0.00,WeatherDisplay:10.37,2013-01-23 10:33:00,
2013-01-23 05:38:00,23.2,4.5,29.93,SSE,158,0.0,0.0,44,0.00,,,0.00,WeatherDisplay:10.37,2013-01-23 10:38:00,
2013-01-23 05:43:00,23.0,4.3,29.93,SSE,158,0.0,0.0,44,0.00,,,0.00,WeatherDisplay:10.37,2013-01-23 10:43:00,
2013-01-23 05:48:00,23.2,4.5,29.92,SSE,158,0.0,0.0,44,0.00,,,0.00,WeatherDisplay:10.37,2013-01-23 10:48:00,
2013-01-23 05:53:00,23.4,5.1,29.93,SSE,158,0.0,0.0,45,0.00,,,0.00,WeatherDisplay:10.37,2013-01-23 10:53:00,
2013-01-23 05:58:00,23.5,5.3,29.93,South,180,0.0,0.0,45,0.00,,,0.00,WeatherDisplay:10.37,2013-01-23 10:58:00,
2013-01-23 06:03:00,23.5,5.3,29.92,SSE,158,0.0,0.0,45,0.00,,,0.00,WeatherDisplay:10.37,2013-01-23 11:03:00,
2013-01-23 06:09:00,23.5,5.3,29.93,SSE,158,0.0,0.0,45,0.00,,,0.00,WeatherDisplay:10.37,2013-01-23 11:09:00,
2013-01-23 06:14:00,23.5,5.3,29.93,South,180,0.0,0.0,45,0.00,,,0.00,WeatherDisplay:10.37,2013-01-23 11:14:00,
2013-01-23 06:19:00,23.5,5.3,29.93,South,180,0.0,0.0,45,0.00,,,0.00,WeatherDisplay:10.37,2013-01-23 11:19:00,
2013-01-23 06:24:00,23.5,5.8,29.93,South,180,0.0,0.0,46,0.00,,,0.00,WeatherDisplay:10.37,2013-01-23 11:24:00,
2013-01-23 06:29:00,23.5,5.8,29.93,South,180,0.0,0.0,46,0.00,,,0.00,WeatherDisplay:10.37,2013-01-23 11:29:00,
2013-01-23 06:34:00,23.5,5.8,29.93,South,180,0.0,0.0,46,0.00,,,0.00,WeatherDisplay:10.37,2013-01-23 11:34:00,
2013-01-23 06:39:00,23.5,5.8,29.93,South,180,0.0,0.0,46,0.00,,,0.00,WeatherDisplay:10.37,2013-01-23 11:39:00,
2013-01-23 06:44:00,23.5,5.8,29.93,South,180,0.0,0.0,46,0.00,,,0.00,WeatherDisplay:10.37,2013-01-23 11:44:00,
2013-01-23 06:49:00,23.5,5.8,29.94,South,180,0.0,0.0,46,0.00,,,0.00,WeatherDisplay:10.37,2013-01-23 11:49:00,
2013-01-23 06:54:00,23.5,5.8,29.93,South,180,0.0,0.0,46,0.00,,,0.00,WeatherDisplay:10.37,2013-01-23 11:54:00,
2013-01-23 06:59:00,23.5,5.8,29.94,South,180,0.0,0.0,46,0.00,,,0.00,WeatherDisplay:10.37,2013-01-23 11:59:00,
2013-01-23 07:04:00,23.2,4.9,29.95,South,180,0.0,0.0,45,0.00,,,0.00,WeatherDisplay:10.37,2013-01-23 12:04:00,
2013-01-23 07:09:00,22.8,5.1,29.95,South,180,0.0,0.0,46,0.00,,,0.00,WeatherDisplay:10.37,2013-01-23 12:09:00,
2013-01-23 07:14:00,22.8,5.1,29.95,South,180,0.0,0.0,46,0.00,,,0.00,WeatherDisplay:10.37,2013-01-23 12:14:00,
2013-01-23 07:19:00,23.0,5.3,29.95,South,180,0.0,0.0,46,0.00,,,0.00,WeatherDisplay:10.37,2013-01-23 12:19:00,
2013-01-23 07:24:00,23.2,5.4,29.95,South,180,0.0,0.0,46,0.00,,,0.00,WeatherDisplay:10.37,2013-01-23 12:24:00,
2013-01-23 07:29:00,23.2,5.4,29.95,South,180,0.0,0.0,46,0.00,,,0.00,WeatherDisplay:10.37,2013-01-23 12:29:00,
2013-01-23 07:34:00,23.2,5.9,29.95,South,180,0.0,0.0,47,0.00,,,0.00,WeatherDisplay:10.37,2013-01-23 12:34:00,
2013-01-23 07:39:00,23.0,5.3,29.95,South,180,0.0,0.0,46,0.00,,,0.00,WeatherDisplay:10.37,2013-01-23 12:39:00,
2013-01-23 07:44:00,22.8,5.1,29.95,South,180,0.0,0.0,46,0.00,,,0.00,WeatherDisplay:10.37,2013-01-23 12:44:00,
2013-01-23 07:49:00,22.8,5.6,29.95,South,180,0.0,0.0,47,0.00,,,0.00,WeatherDisplay:10.37,2013-01-23 12:49:00,
2013-01-23 07:54:00,22.8,5.6,29.95,South,180,0.0,0.0,47,0.00,,,0.00,WeatherDisplay:10.37,2013-01-23 12:54:00,
2013-01-23 07:59:00,22.8,5.6,29.95,South,180,0.0,0.0,47,0.00,,,0.00,WeatherDisplay:10.37,2013-01-23 12:59:00,
2013-01-23 08:04:00,23.0,5.7,29.95,South,180,0.0,0.0,47,0.00,,,0.00,WeatherDisplay:10.37,2013-01-23 13:04:00,
2013-01-23 08:09:00,22.8,5.6,29.95,South,180,0.0,0.0,47,0.00,,,0.00,WeatherDisplay:10.37,2013-01-23 13:09:00,
2013-01-23 08:14:00,23.0,6.2,29.95,South,180,0.0,0.0,48,0.00,,,0.00,WeatherDisplay:10.37,2013-01-23 13:14:00,
2013-01-23 08:19:00,23.2,6.4,29.95,South,180,0.0,0.0,48,0.00,,,0.00,WeatherDisplay:10.37,2013-01-23 13:19:00,
2013-01-23 08:24:00,23.5,6.7,29.96,South,180,0.0,0.0,48,0.00,,,0.00,WeatherDisplay:10.37,2013-01-23 13:24:00,
2013-01-23 08:29:00,23.7,6.9,29.96,South,180,0.0,0.0,48,0.00,,,0.00,WeatherDisplay:10.37,2013-01-23 13:29:00,
2013-01-23 08:34:00,23.9,7.0,29.96,South,180,0.0,0.0,48,0.00,,,0.00,WeatherDisplay:10.37,2013-01-23 13:34:00,
2013-01-23 08:39:00,24.4,7.5,29.96,South,180,0.0,0.0,48,0.00,,,0.00,WeatherDisplay:10.37,2013-01-23 13:39:00,
2013-01-23 08:44:00,24.4,7.5,29.96,South,180,0.0,0.0,48,0.00,,,0.00,WeatherDisplay:10.37,2013-01-23 13:44:00,
2013-01-23 08:49:00,25.0,8.0,29.96,South,180,0.0,0.0,48,0.00,,,0.00,WeatherDisplay:10.37,2013-01-23 13:49:00,
2013-01-23 08:54:00,25.2,8.2,29.96,South,180,0.0,0.0,48,0.00,,,0.00,WeatherDisplay:10.37,2013-01-23 13:54:00,
2013-01-23 08:59:00,25.3,8.4,29.96,South,180,0.0,0.0,48,0.00,,,0.00,WeatherDisplay:10.37,2013-01-23 13:59:00,
2013-01-23 09:04:00,25.5,8.5,29.96,South,180,0.0,0.0,48,0.00,,,0.00,WeatherDisplay:10.37,2013-01-23 14:04:00,
2013-01-23 09:09:00,26.1,9.0,29.97,South,180,0.0,0.0,48,0.00,,,0.00,WeatherDisplay:10.37,2013-01-23 14:09:00,
2013-01-23 09:14:00,26.4,9.4,29.96,SSE,158,0.0,0.0,48,0.00,,,0.00,WeatherDisplay:10.37,2013-01-23 14:14:00,
2013-01-23 09:19:00,26.6,9.5,29.97,SSE,158,0.3,0.0,48,0.00,,,0.00,WeatherDisplay:10.37,2013-01-23 14:19:00,
2013-01-23 09:24:00,27.1,10.0,29.97,SSE,158,0.0,0.0,48,0.00,,,0.00,WeatherDisplay:10.37,2013-01-23 14:24:00,
2013-01-23 09:29:00,27.7,10.0,29.98,SSE,158,0.0,0.0,47,0.00,,,0.00,WeatherDisplay:10.37,2013-01-23 14:29:00,
2013-01-23 09:34:00,28.2,11.0,29.97,SSE,158,0.0,0.0,48,0.00,,,0.00,WeatherDisplay:10.37,2013-01-23 14:34:00,
2013-01-23 09:39:00,28.9,11.2,29.97,SSE,158,0.1,0.0,47,0.00,,,0.00,WeatherDisplay:10.37,2013-01-23 14:39:00,
2013-01-23 09:44:00,29.7,11.9,29.98,SSE,158,0.0,0.0,47,0.00,,,0.00,WeatherDisplay:10.37,2013-01-23 14:44:00,
2013-01-23 09:52:00,29.8,11.5,29.98,North,0,0.0,2.3,46,0.00,CLR,,0.00,WeatherDisplay:10.37,2013-01-23 14:52:00,
2013-01-23 09:57:00,31.1,12.2,29.98,SSE,158,0.1,2.3,45,0.00,CLR,,0.00,WeatherDisplay:10.37,2013-01-23 14:57:00,
2013-01-23 10:02:00,31.8,12.9,29.98,SSE,158,0.6,3.5,45,0.00,CLR,,0.00,WeatherDisplay:10.37,2013-01-23 15:02:00,
2013-01-23 10:07:00,32.7,13.2,29.98,SE,135,0.0,1.1,44,0.00,CLR,,0.00,WeatherDisplay:10.37,2013-01-23 15:07:00,
2013-01-23 10:12:00,33.6,14.0,29.98,ESE,112,0.0,0.0,44,0.00,CLR,,0.00,WeatherDisplay:10.37,2013-01-23 15:12:00,
2013-01-23 10:17:00,34.2,14.0,29.98,South,180,0.0,0.0,43,0.00,CLR,,0.00,WeatherDisplay:10.37,2013-01-23 15:17:00,
2013-01-23 10:22:00,34.9,14.6,29.98,South,180,2.6,6.9,43,0.00,CLR,,0.00,WeatherDisplay:10.37,2013-01-23 15:22:00,
2013-01-23 10:27:00,35.4,15.1,29.98,SE,135,0.8,6.9,43,0.00,CLR,,0.00,WeatherDisplay:10.37,2013-01-23 15:27:00,
2013-01-23 10:32:00,36.1,15.2,29.98,SSW,202,0.0,2.0,42,0.00,CLR,,0.00,WeatherDisplay:10.37,2013-01-23 15:32:00,
2013-01-23 10:37:00,36.7,15.7,29.98,South,180,0.0,3.5,42,0.00,CLR,,0.00,WeatherDisplay:10.37,2013-01-23 15:37:00,
2013-01-23 10:42:00,37.2,15.6,29.98,SSE,158,0.9,2.3,41,0.00,CLR,,0.00,WeatherDisplay:10.37,2013-01-23 15:42:00,
2013-01-23 10:47:00,37.9,15.7,29.98,South,180,3.9,5.8,40,0.00,CLR,,0.00,WeatherDisplay:10.37,2013-01-23 15:47:00,
2013-01-23 10:52:00,38.1,15.3,29.99,ESE,112,0.0,0.0,39,0.00,CLR,,0.00,WeatherDisplay:10.37,2013-01-23 15:52:00,
2013-01-23 10:57:00,38.5,15.6,29.98,SSE,158,3.1,6.9,39,0.00,CLR,,0.00,WeatherDisplay:10.37,2013-01-23 15:57:00,
2013-01-23 11:02:00,39.0,16.1,29.98,SE,135,0.0,0.0,39,0.00,CLR,,0.00,WeatherDisplay:10.37,2013-01-23 16:02:00,
2013-01-23 11:07:00,39.9,16.9,29.98,SSE,158,1.3,3.5,39,0.00,CLR,,0.00,WeatherDisplay:10.37,2013-01-23 16:07:00,
2013-01-23 11:12:00,40.6,17.0,29.98,SE,135,2.7,4.6,38,0.00,CLR,,0.00,WeatherDisplay:10.37,2013-01-23 16:12:00,
2013-01-23 11:17:00,41.0,17.3,29.98,SSW,202,0.4,2.3,38,0.00,CLR,,0.00,WeatherDisplay:10.37,2013-01-23 16:17:00,
2013-01-23 11:22:00,41.5,17.2,29.97,SE,135,0.7,4.6,37,0.00,CLR,,0.00,WeatherDisplay:10.37,2013-01-23 16:22:00,
2013-01-23 11:27:00,41.5,16.5,29.98,SSE,158,0.3,3.5,36,0.00,CLR,,0.00,WeatherDisplay:10.37,2013-01-23 16:27:00,
2013-01-23 11:32:00,41.9,17.5,29.97,SE,135,1.0,3.5,37,0.00,CLR,,0.00,WeatherDisplay:10.37,2013-01-23 16:32:00,
2013-01-23 11:37:00,42.6,18.1,29.97,SSE,158,0.1,5.8,37,0.00,CLR,,0.00,WeatherDisplay:10.37,2013-01-23 16:37:00,
2013-01-23 11:42:00,43.2,18.0,29.97,South,180,1.7,4.6,36,0.00,CLR,,0.00,WeatherDisplay:10.37,2013-01-23 16:42:00,
2013-01-23 11:47:00,43.5,18.3,29.97,SSE,158,1.4,3.5,36,0.00,CLR,,0.00,WeatherDisplay:10.37,2013-01-23 16:47:00,
2013-01-23 11:52:00,43.5,18.3,29.96,SSE,158,0.0,0.0,36,0.00,CLR,,0.00,WeatherDisplay:10.37,2013-01-23 16:52:00,
2013-01-23 11:57:00,43.9,18.0,29.95,SSE,158,0.0,0.0,35,0.00,CLR,,0.00,WeatherDisplay:10.37,2013-01-23 16:57:00,
2013-01-23 12:02:00,44.4,18.4,29.95,SSE,158,3.8,6.9,35,0.00,CLR,,0.00,WeatherDisplay:10.37,2013-01-23 17:02:00,
2013-01-23 12:07:00,44.4,18.4,29.95,SSE,158,0.7,3.5,35,0.00,CLR,,0.00,WeatherDisplay:10.37,2013-01-23 17:07:00,
2013-01-23 12:12:00,44.6,19.3,29.95,SSE,158,1.4,8.1,36,0.00,CLR,,0.00,WeatherDisplay:10.37,2013-01-23 17:12:00,
2013-01-23 12:17:00,45.1,19.1,29.94,South,180,1.9,6.9,35,0.00,CLR,,0.00,WeatherDisplay:10.37,2013-01-23 17:17:00,
2013-01-23 12:22:00,45.7,19.6,29.94,SSE,158,2.2,4.6,35,0.00,CLR,,0.00,WeatherDisplay:10.37,2013-01-23 17:22:00,
2013-01-23 12:27:00,45.9,19.0,29.94,SE,135,0.1,2.7,34,0.00,CLR,,0.00,WeatherDisplay:10.37,2013-01-23 17:27:00,
2013-01-23 12:32:00,46.0,19.2,29.93,SE,135,0.3,2.3,34,0.00,CLR,,0.00,WeatherDisplay:10.37,2013-01-23 17:32:00,
2013-01-23 12:37:00,46.2,20.0,29.93,SSE,158,1.6,4.6,35,0.00,CLR,,0.00,WeatherDisplay:10.37,2013-01-23 17:37:00,
2013-01-23 12:42:00,46.6,19.7,29.93,SE,135,2.3,5.8,34,0.00,CLR,,0.00,WeatherDisplay:10.37,2013-01-23 17:42:00,
2013-01-23 12:47:00,47.1,20.2,29.92,SSE,158,0.0,0.0,34,0.00,CLR,,0.00,WeatherDisplay:10.37,2013-01-23 17:47:00,
2013-01-23 12:52:00,47.5,20.5,29.92,ESE,112,0.0,0.0,34,0.00,CLR,,0.00,WeatherDisplay:10.37,2013-01-23 17:52:00,
2013-01-23 12:57:00,48.0,20.2,29.91,SE,135,0.0,0.0,33,0.00,CLR,,0.00,WeatherDisplay:10.37,2013-01-23 17:57:00,
2013-01-23 13:02:00,48.2,21.1,29.90,SE,135,0.2,4.6,34,0.00,CLR,,0.00,WeatherDisplay:10.37,2013-01-23 18:02:00,
2013-01-23 13:07:00,48.6,20.7,29.90,SSE,158,0.1,1.1,33,0.00,CLR,,0.00,WeatherDisplay:10.37,2013-01-23 18:07:00,
2013-01-23 13:12:00,48.7,20.9,29.90,ESE,112,2.4,5.8,33,0.00,CLR,,0.00,WeatherDisplay:10.37,2013-01-23 18:12:00,
2013-01-23 13:17:00,48.7,20.9,29.90,SSE,158,3.2,6.9,33,0.00,CLR,,0.00,WeatherDisplay:10.37,2013-01-23 18:17:00,
2013-01-23 13:22:00,48.7,20.9,29.89,ESE,112,0.6,2.3,33,0.00,CLR,,0.00,WeatherDisplay:10.37,2013-01-23 18:22:00,
2013-01-23 13:27:00,48.6,20.7,29.89,SE,135,1.9,4.6,33,0.00,CLR,,0.00,WeatherDisplay:10.37,2013-01-23 18:27:00,
2013-01-23 13:32:00,48.7,20.9,29.89,East,90,0.3,2.3,33,0.00,CLR,,0.00,WeatherDisplay:10.37,2013-01-23 18:32:00,
2013-01-23 13:37:00,48.9,21.0,29.89,South,180,0.1,3.5,33,0.00,CLR,,0.00,WeatherDisplay:10.37,2013-01-23 18:37:00,
2013-01-23 13:42:00,48.9,21.0,29.88,NE,45,2.4,4.6,33,0.00,CLR,,0.00,WeatherDisplay:10.37,2013-01-23 18:42:00,
2013-01-23 13:47:00,49.6,21.7,29.88,SSE,158,1.5,5.8,33,0.00,CLR,,0.00,WeatherDisplay:10.37,2013-01-23 18:47:00,
2013-01-23 13:52:00,50.2,22.1,29.87,SSE,158,0.6,3.5,33,0.00,CLR,,0.00,WeatherDisplay:10.37,2013-01-23 18:52:00,
2013-01-23 13:57:00,50.4,21.6,29.88,SE,135,2.7,6.9,32,0.00,CLR,,0.00,WeatherDisplay:10.37,2013-01-23 18:57:00,
2013-01-23 14:02:00,50.7,21.9,29.87,ESE,112,0.0,0.0,32,0.00,CLR,,0.00,WeatherDisplay:10.37,2013-01-23 19:02:00,
2013-01-23 14:07:00,50.7,21.9,29.87,SSE,158,3.5,5.8,32,0.00,CLR,,0.00,WeatherDisplay:10.37,2013-01-23 19:07:00,
2013-01-23 14:12:00,50.9,22.1,29.86,SE,135,4.2,5.8,32,0.00,CLR,,0.00,WeatherDisplay:10.37,2013-01-23 19:12:00,
2013-01-23 14:17:00,50.9,22.1,29.87,SSE,158,0.5,7.2,32,0.00,CLR,,0.00,WeatherDisplay:10.37,2013-01-23 19:17:00,
2013-01-23 14:22:00,51.1,22.2,29.87,South,180,0.0,0.0,32,0.00,CLR,,0.00,WeatherDisplay:10.37,2013-01-23 19:22:00,
2013-01-23 14:27:00,51.1,22.2,29.86,SSE,158,0.9,4.7,32,0.00,CLR,,0.00,WeatherDisplay:10.37,2013-01-23 19:27:00,
2013-01-23 14:32:00,51.1,22.2,29.86,SE,135,0.1,1.1,32,0.00,CLR,,0.00,WeatherDisplay:10.37,2013-01-23 19:32:00,
2013-01-23 14:37:00,50.9,22.1,29.86,ESE,112,0.9,5.8,32,0.00,CLR,,0.00,WeatherDisplay:10.37,2013-01-23 19:37:00,
2013-01-23 14:42:00,51.4,21.8,29.86,NE,45,0.4,1.1,31,0.00,CLR,,0.00,WeatherDisplay:10.37,2013-01-23 19:42:00,
2013-01-23 14:47:00,51.6,21.9,29.87,NE,45,0.0,0.0,31,0.00,CLR,,0.00,WeatherDisplay:10.37,2013-01-23 19:47:00,
2013-01-23 14:52:00,51.6,21.9,29.86,SE,135,1.6,6.9,31,0.00,CLR,,0.00,WeatherDisplay:10.37,2013-01-23 19:52:00,
2013-01-23 14:57:00,51.6,21.9,29.86,SE,135,0.0,0.0,31,0.00,CLR,,0.00,WeatherDisplay:10.37,2013-01-23 19:57:00,
2013-01-23 15:02:00,51.6,21.9,29.86,SE,135,0.0,1.3,31,0.00,CLR,,0.00,WeatherDisplay:10.37,2013-01-23 20:02:00,
2013-01-23 15:07:00,51.8,22.1,29.87,SSE,158,4.0,5.8,31,0.00,CLR,,0.00,WeatherDisplay:10.37,2013-01-23 20:07:00,
2013-01-23 15:12:00,52.0,22.2,29.86,North,0,2.4,4.9,31,0.00,CLR,,0.00,WeatherDisplay:10.37,2013-01-23 20:12:00,
2013-01-23 15:17:00,51.8,22.1,29.86,South,180,0.0,0.0,31,0.00,CLR,,0.00,WeatherDisplay:10.37,2013-01-23 20:17:00,
2013-01-23 15:22:00,51.8,22.1,29.86,South,180,0.0,0.0,31,0.00,CLR,,0.00,WeatherDisplay:10.37,2013-01-23 20:22:00,
2013-01-23 15:27:00,52.0,22.2,29.86,NNE,22,2.4,5.8,31,0.00,CLR,,0.00,WeatherDisplay:10.37,2013-01-23 20:27:00,
2013-01-23 15:32:00,51.6,21.9,29.85,SSE,158,0.0,0.0,31,0.00,CLR,,0.00,WeatherDisplay:10.37,2013-01-23 20:32:00,
2013-01-23 15:37:00,51.6,21.9,29.86,SSE,158,1.0,5.8,31,0.00,CLR,,0.00,WeatherDisplay:10.37,2013-01-23 20:37:00,
2013-01-23 15:42:00,51.4,21.8,29.85,ESE,112,0.4,2.3,31,0.00,CLR,,0.00,WeatherDisplay:10.37,2013-01-23 20:42:00,
2013-01-23 15:47:00,51.3,21.6,29.85,SE,135,0.0,0.0,31,0.00,CLR,,0.00,WeatherDisplay:10.37,2013-01-23 20:47:00,
2013-01-23 15:52:00,50.7,21.1,29.85,SSE,158,0.5,2.3,31,0.00,CLR,,0.00,WeatherDisplay:10.37,2013-01-23 20:52:00,
2013-01-23 15:57:00,50.7,21.9,29.85,SE,135,0.5,5.8,32,0.00,CLR,,0.00,WeatherDisplay:10.37,2013-01-23 20:57:00,
2013-01-23 16:02:00,50.7,21.9,29.85,SSE,158,0.2,4.9,32,0.00,CLR,,0.00,WeatherDisplay:10.37,2013-01-23 21:02:00,
2013-01-23 16:07:00,50.5,21.7,29.85,SW,225,0.0,0.0,32,0.00,CLR,,0.00,WeatherDisplay:10.37,2013-01-23 21:07:00,
2013-01-23 16:12:00,50.4,21.6,29.85,SE,135,0.0,0.0,32,0.00,CLR,,0.00,WeatherDisplay:10.37,2013-01-23 21:12:00,
2013-01-23 16:17:00,50.4,21.6,29.85,SE,135,0.6,3.5,32,0.00,CLR,,0.00,WeatherDisplay:10.37,2013-01-23 21:17:00,
2013-01-23 16:22:00,50.2,21.4,29.84,SE,135,2.7,3.5,32,0.00,CLR,,0.00,WeatherDisplay:10.37,2013-01-23 21:22:00,
2013-01-23 16:27:00,49.8,21.8,29.84,SSE,158,0.9,4.6,33,0.00,CLR,,0.00,WeatherDisplay:10.37,2013-01-23 21:27:00,
2013-01-23 16:32:00,49.6,21.7,29.84,SSE,158,0.8,4.6,33,0.00,CLR,,0.00,WeatherDisplay:10.37,2013-01-23 21:32:00,
2013-01-23 16:37:00,49.3,21.4,29.85,SE,135,0.0,0.0,33,0.00,CLR,,0.00,WeatherDisplay:10.37,2013-01-23 21:37:00,
2013-01-23 16:42:00,49.1,21.2,29.84,SE,135,0.0,0.0,33,0.00,CLR,,0.00,WeatherDisplay:10.37,2013-01-23 21:42:00,
2013-01-23 16:47:00,48.9,21.7,29.84,SSE,158,0.0,0.0,34,0.00,CLR,,0.00,WeatherDisplay:10.37,2013-01-23 21:47:00,
2013-01-23 16:52:00,48.7,21.6,29.84,SE,135,0.0,0.0,34,0.00,CLR,,0.00,WeatherDisplay:10.37,2013-01-23 21:52:00,
2013-01-23 16:57:00,48.4,21.3,29.84,SSE,158,0.8,3.5,34,0.00,CLR,,0.00,WeatherDisplay:10.37,2013-01-23 21:57:00,
2013-01-23 17:02:00,48.2,21.1,29.84,SSE,158,0.0,0.0,34,0.00,CLR,,0.00,WeatherDisplay:10.37,2013-01-23 22:02:00,
2013-01-23 17:07:00,48.0,20.9,29.84,SSE,158,0.5,2.3,34,0.00,CLR,,0.00,WeatherDisplay:10.37,2013-01-23 22:07:00,
2013-01-23 17:12:00,47.5,21.2,29.84,SSE,158,0.0,0.0,35,0.00,CLR,,0.00,WeatherDisplay:10.37,2013-01-23 22:12:00,
2013-01-23 17:17:00,47.1,20.8,29.84,SSE,158,0.0,0.0,35,0.00,CLR,,0.00,WeatherDisplay:10.37,2013-01-23 22:17:00,
2013-01-23 17:22:00,46.6,20.4,29.84,SSE,158,0.0,0.0,35,0.00,CLR,,0.00,WeatherDisplay:10.37,2013-01-23 22:22:00,
2013-01-23 17:27:00,46.0,20.5,29.84,SSE,158,0.0,0.0,36,0.00,CLR,,0.00,WeatherDisplay:10.37,2013-01-23 22:27:00,
2013-01-23 17:32:00,45.3,19.9,29.84,SSE,158,0.0,0.0,36,0.00,CLR,,0.00,WeatherDisplay:10.37,2013-01-23 22:32:00,
2013-01-23 17:37:00,44.4,19.1,29.84,SSE,158,0.0,0.0,36,0.00,CLR,,0.00,WeatherDisplay:10.37,2013-01-23 22:37:00,
2013-01-23 17:42:00,43.7,19.1,29.84,SSE,158,0.0,0.0,37,0.00,CLR,,0.00,WeatherDisplay:10.37,2013-01-23 22:42:00,
2013-01-23 17:47:00,43.0,19.1,29.84,SSE,158,0.0,0.0,38,0.00,CLR,,0.00,WeatherDisplay:10.37,2013-01-23 22:47:00,
2013-01-23 17:52:00,42.1,18.3,29.84,SE,135,0.0,0.0,38,0.00,CLR,,0.00,WeatherDisplay:10.37,2013-01-23 22:52:00,
2013-01-23 17:57:00,41.4,18.2,29.84,SE,135,0.0,0.0,39,0.00,CLR,,0.00,WeatherDisplay:10.37,2013-01-23 22:57:00,
2013-01-23 18:02:00,41.2,18.1,29.84,SE,135,0.0,0.0,39,0.00,CLR,,0.00,WeatherDisplay:10.37,2013-01-23 23:02:00,
2013-01-23 18:07:00,40.6,18.2,29.84,SE,135,0.0,0.0,40,0.00,CLR,,0.00,WeatherDisplay:10.37,2013-01-23 23:07:00,
2013-01-23 18:12:00,39.9,18.1,29.84,SE,135,0.0,0.0,41,0.00,CLR,,0.00,WeatherDisplay:10.37,2013-01-23 23:12:00,
2013-01-23 18:17:00,39.4,17.6,29.84,NE,45,0.0,0.0,41,0.00,CLR,,0.00,WeatherDisplay:10.37,2013-01-23 23:17:00,
2013-01-23 18:22:00,38.8,17.7,29.84,NE,45,0.0,0.0,42,0.00,CLR,,0.00,WeatherDisplay:10.37,2013-01-23 23:22:00,
2013-01-23 18:27:00,38.5,17.3,29.84,NE,45,0.0,0.0,42,0.00,CLR,,0.00,WeatherDisplay:10.37,2013-01-23 23:27:00,
2013-01-23 18:32:00,38.1,17.6,29.84,NE,45,0.0,0.0,43,0.00,CLR,,0.00,WeatherDisplay:10.37,2013-01-23 23:32:00,
2013-01-23 18:37:00,37.9,17.9,29.84,NNE,22,0.0,0.0,44,0.00,CLR,,0.00,WeatherDisplay:10.37,2013-01-23 23:37:00,
2013-01-23 18:42:00,37.8,17.8,29.84,NNE,22,0.0,0.0,44,0.00,CLR,,0.00,WeatherDisplay:10.37,2013-01-23 23:42:00,
2013-01-23 18:47:00,37.4,18.0,29.83,NNE,22,0.0,0.0,45,0.00,CLR,,0.00,WeatherDisplay:10.37,2013-01-23 23:47:00,
2013-01-23 18:52:00,37.2,17.8,29.83,NNE,22,0.0,0.0,45,0.00,CLR,,0.00,WeatherDisplay:10.37,2013-01-23 23:52:00,
2013-01-23 18:57:00,37.2,17.8,29.84,NNE,22,0.0,0.0,45,0.00,CLR,,0.00,WeatherDisplay:10.37,2013-01-23 23:57:00,
2013-01-23 19:02:00,37.2,17.8,29.83,NNE,22,0.0,0.0,45,0.00,CLR,,0.00,WeatherDisplay:10.37,2013-01-24 00:02:00,
2013-01-23 19:07:00,37.2,18.3,29.83,NNE,22,0.0,0.0,46,0.00,CLR,,0.00,WeatherDisplay:10.37,2013-01-24 00:07:00,
2013-01-23 19:12:00,37.2,18.3,29.82,NNE,22,0.0,0.0,46,0.00,CLR,,0.00,WeatherDisplay:10.37,2013-01-24 00:12:00,
2013-01-23 19:17:00,37.2,18.3,29.82,NNE,22,0.0,0.0,46,0.00,CLR,,0.00,WeatherDisplay:10.37,2013-01-24 00:17:00,
2013-01-23 19:22:00,37.2,18.3,29.83,NNE,22,0.0,0.0,46,0.00,CLR,,0.00,WeatherDisplay:10.37,2013-01-24 00:22:00,
2013-01-23 19:27:00,37.0,18.7,29.82,NNE,22,0.0,0.0,47,0.00,CLR,,0.00,WeatherDisplay:10.37,2013-01-24 00:27:00,
2013-01-23 19:32:00,37.0,18.7,29.82,NNE,22,0.0,0.0,47,0.00,CLR,,0.00,WeatherDisplay:10.37,2013-01-24 00:32:00,
2013-01-23 19:37:00,36.9,18.5,29.82,NNE,22,0.0,0.0,47,0.00,CLR,,0.00,WeatherDisplay:10.37,2013-01-24 00:37:00,
2013-01-23 19:42:00,36.7,18.3,29.82,NNE,22,0.0,0.0,47,0.00,CLR,,0.00,WeatherDisplay:10.37,2013-01-24 00:42:00,
2013-01-23 19:47:00,36.5,18.2,29.82,NNE,22,0.0,0.0,47,0.00,CLR,,0.00,WeatherDisplay:10.37,2013-01-24 00:47:00,
2013-01-23 19:52:00,36.3,18.5,29.82,NNE,22,0.0,0.0,48,0.00,CLR,,0.00,WeatherDisplay:10.37,2013-01-24 00:52:00,
2013-01-23 19:57:00,36.1,18.3,29.82,NNE,22,0.0,0.0,48,0.00,CLR,,0.00,WeatherDisplay:10.37,2013-01-24 00:57:00,
2013-01-23 20:02:00,36.1,18.3,29.82,NNE,22,0.0,0.0,48,0.00,CLR,,0.00,WeatherDisplay:10.37,2013-01-24 01:02:00,
2013-01-23 20:07:00,36.0,18.6,29.81,NNE,22,0.0,0.0,49,0.00,CLR,,0.00,WeatherDisplay:10.37,2013-01-24 01:07:00,
2013-01-23 20:12:00,35.8,18.5,29.81,NNE,22,0.0,0.0,49,0.00,CLR,,0.00,WeatherDisplay:10.37,2013-01-24 01:12:00,
2013-01-23 20:17:00,35.8,18.5,29.81,NNE,22,0.0,0.0,49,0.00,CLR,,0.00,WeatherDisplay:10.37,2013-01-24 01:17:00,
2013-01-23 20:22:00,35.8,18.5,29.82,NNE,22,0.0,0.0,49,0.00,CLR,,0.00,WeatherDisplay:10.37,2013-01-24 01:22:00,
2013-01-23 20:27:00,35.4,18.6,29.81,NNE,22,0.0,0.0,50,0.00,CLR,,0.00,WeatherDisplay:10.37,2013-01-24 01:27:00,
2013-01-23 20:32:00,35.4,18.6,29.82,NNE,22,0.0,0.0,50,0.00,CLR,,0.00,WeatherDisplay:10.37,2013-01-24 01:32:00,
2013-01-23 20:37:00,35.4,18.6,29.82,NNE,22,0.0,0.0,50,0.00,CLR,,0.00,WeatherDisplay:10.37,2013-01-24 01:37:00,
2013-01-23 20:42:00,35.2,18.4,29.82,NNE,22,0.0,0.0,50,0.00,CLR,,0.00,WeatherDisplay:10.37,2013-01-24 01:42:00,
2013-01-23 20:47:00,35.2,18.4,29.82,NNE,22,0.0,0.0,50,0.00,CLR,,0.00,WeatherDisplay:10.37,2013-01-24 01:47:00,
2013-01-23 20:52:00,34.9,18.6,29.82,NNE,22,0.0,0.0,51,0.00,CLR,,0.00,WeatherDisplay:10.37,2013-01-24 01:52:00,
2013-01-23 20:57:00,34.9,18.6,29.81,NNE,22,0.0,0.0,51,0.00,CLR,,0.00,WeatherDisplay:10.37,2013-01-24 01:57:00,
2013-01-23 21:02:00,34.7,18.4,29.81,NNE,22,0.0,0.0,51,0.00,CLR,,0.00,WeatherDisplay:10.37,2013-01-24 02:02:00,
2013-01-23 21:07:00,34.7,18.9,29.80,NNE,22,0.0,0.0,52,0.00,CLR,,0.00,WeatherDisplay:10.37,2013-01-24 02:07:00,
2013-01-23 21:12:00,34.5,18.7,29.80,NNE,22,0.0,0.0,52,0.00,CLR,,0.00,WeatherDisplay:10.37,2013-01-24 02:12:00,
2013-01-23 21:17:00,34.5,19.1,29.80,NNE,22,0.0,0.0,53,0.00,CLR,,0.00,WeatherDisplay:10.37,2013-01-24 02:17:00,
2013-01-23 21:22:00,34.3,19.0,29.80,NNE,22,0.0,0.0,53,0.00,CLR,,0.00,WeatherDisplay:10.37,2013-01-24 02:22:00,
2013-01-23 21:27:00,34.5,19.6,29.80,NNE,22,0.0,0.0,54,0.00,CLR,,0.00,WeatherDisplay:10.37,2013-01-24 02:27:00,
2013-01-23 21:32:00,34.5,19.6,29.80,NNE,22,0.0,0.0,54,0.00,CLR,,0.00,WeatherDisplay:10.37,2013-01-24 02:32:00,
2013-01-23 21:37:00,34.5,19.6,29.80,NNE,22,0.0,0.0,54,0.00,CLR,,0.00,WeatherDisplay:10.37,2013-01-24 02:37:00,
2013-01-23 21:42:00,34.5,19.6,29.80,NNE,22,0.0,0.0,54,0.00,CLR,,0.00,WeatherDisplay:10.37,2013-01-24 02:42:00,
2013-01-23 21:47:00,34.5,19.6,29.80,NNE,22,0.0,0.0,54,0.00,CLR,,0.00,WeatherDisplay:10.37,2013-01-24 02:47:00,
2013-01-23 21:52:00,34.5,20.0,29.80,NNE,22,0.0,0.0,55,0.00,CLR,,0.00,WeatherDisplay:10.37,2013-01-24 02:52:00,
2013-01-23 21:57:00,34.5,20.0,29.80,North,0,0.0,0.0,55,0.00,CLR,,0.00,WeatherDisplay:10.37,2013-01-24 02:57:00,
2013-01-23 22:02:00,34.5,20.0,29.79,North,0,0.0,0.0,55,0.00,CLR,,0.00,WeatherDisplay:10.37,2013-01-24 03:02:00,
2013-01-23 22:07:00,34.5,20.0,29.78,North,0,0.0,0.0,55,0.00,CLR,,0.00,WeatherDisplay:10.37,2013-01-24 03:07:00,
2013-01-23 22:12:00,34.7,20.2,29.78,North,0,0.0,0.0,55,0.00,CLR,,0.00,WeatherDisplay:10.37,2013-01-24 03:12:00,
2013-01-23 22:17:00,34.9,20.8,29.79,North,0,0.0,0.0,56,0.00,CLR,,0.00,WeatherDisplay:10.37,2013-01-24 03:17:00,
2013-01-23 22:22:00,35.2,21.1,29.79,North,0,0.0,0.0,56,0.00,CLR,,0.00,WeatherDisplay:10.37,2013-01-24 03:22:00,
2013-01-23 22:27:00,35.4,21.3,29.77,North,0,0.0,0.0,56,0.00,CLR,,0.00,WeatherDisplay:10.37,2013-01-24 03:27:00,
2013-01-23 22:32:00,35.4,21.3,29.78,WNW,292,0.0,0.0,56,0.00,CLR,,0.00,WeatherDisplay:10.37,2013-01-24 03:32:00,
2013-01-23 22:37:00,35.4,21.3,29.78,WNW,292,0.0,0.0,56,0.00,CLR,,0.00,WeatherDisplay:10.37,2013-01-24 03:37:00,
2013-01-23 22:42:00,35.4,21.3,29.78,NW,315,0.0,0.0,56,0.00,CLR,,0.00,WeatherDisplay:10.37,2013-01-24 03:42:00,
2013-01-23 22:47:00,35.2,21.1,29.77,NW,315,0.0,0.0,56,0.00,CLR,,0.00,WeatherDisplay:10.37,2013-01-24 03:47:00,
2013-01-23 22:52:00,35.2,21.1,29.78,NW,315,0.0,0.0,56,0.00,CLR,,0.00,WeatherDisplay:10.37,2013-01-24 03:52:00,
2013-01-23 22:57:00,35.4,21.3,29.77,ENE,68,0.0,0.0,56,0.00,CLR,,0.00,WeatherDisplay:10.37,2013-01-24 03:57:00,
2013-01-23 23:02:00,35.4,21.7,29.77,NNE,22,0.0,0.0,57,0.00,CLR,,0.00,WeatherDisplay:10.37,2013-01-24 04:02:00,
2013-01-23 23:07:00,35.4,21.7,29.78,NNE,22,0.0,0.0,57,0.00,CLR,,0.00,WeatherDisplay:10.37,2013-01-24 04:07:00,
2013-01-23 23:12:00,35.4,21.7,29.77,NNE,22,0.0,0.0,57,0.00,CLR,,0.00,WeatherDisplay:10.37,2013-01-24 04:12:00,
2013-01-23 23:17:00,35.4,21.7,29.76,NNE,22,0.0,0.0,57,0.00,CLR,,0.00,WeatherDisplay:10.37,2013-01-24 04:17:00,
2013-01-23 23:22:00,35.4,22.1,29.76,NNE,22,0.0,0.0,58,0.00,CLR,,0.00,WeatherDisplay:10.37,2013-01-24 04:22:00,
2013-01-23 23:27:00,35.4,22.1,29.77,WNW,292,0.0,0.0,58,0.00,CLR,,0.00,WeatherDisplay:10.37,2013-01-24 04:27:00,
2013-01-23 23:32:00,35.8,22.4,29.76,NW,315,0.0,0.0,58,0.00,CLR,,0.00,WeatherDisplay:10.37,2013-01-24 04:32:00,
2013-01-23 23:37:00,35.8,22.4,29.76,NW,315,0.0,0.0,58,0.00,CLR,,0.00,WeatherDisplay:10.37,2013-01-24 04:37:00,
2013-01-23 23:42:00,36.0,22.6,29.77,NW,315,0.0,0.0,58,0.00,CLR,,0.00,WeatherDisplay:10.37,2013-01-24 04:42:00,
2013-01-23 23:47:00,36.0,22.6,29.76,NW,315,0.0,0.0,58,0.00,CLR,,0.00,WeatherDisplay:10.37,2013-01-24 04:47:00,
2013-01-23 23:52:00,35.8,22.8,29.76,NW,315,0.0,0.0,59,0.00,CLR,,0.00,WeatherDisplay:10.37,2013-01-24 04:52:00,
2013-01-23 23:57:00,35.8,22.8,29.76,WNW,292,0.0,0.0,59,0.00,CLR,,0.00,WeatherDisplay:10.37,2013-01-24 04:57:00,